Location: Knowlton
(51.2333°N, 1.2667°E)
Time: 04:35:32
(UTC+00:00)

Cosmos 1417 Rocket - Pass Details

Date: 18 April 2021
Orbit: 951 x 1000 km, 83.0° (Epoch: 06 May)

Event Time Altitude Azimuth Distance (km) Brightness Sun altitude
Exits shadow 22:49:46 59° 195° (SSW) 1,130 4.5 -26.1°
Maximum altitude 22:51:05 86° 279° (W) 996 4.4 -26.1°
Drops below altitude 10° 22:57:24 10° 9° (N) 2,739 7.7 -26.4°
Sets 22:59:54 0° 10° (N) 3,684 8.5 -26.5°
